Tracking 31027 objects as of 19-Jul-2025
HD Live streaming from Space Station
objects crossing your sky now

SOLRAD 7B

Track SOLRAD 7B now!
10-day predictions
SOLRAD 7B is classified as:


NORAD ID: 1291
Int'l Code: 1965-016D
Perigee: 902.5 km
Apogee: 934.6 km
Inclination: 70.1 °
Period: 103.2 minutes
Semi major axis: 7289 km
RCS: 0.5012 m2 (medium)
Launch date: March 9, 1965
Source: United States (US)
Launch site: AIR FORCE WESTERN TEST RANGE (AFWTR)
Your satellite tracking list
MOLNIYA 1-86
Track 1 satellite(s)




NASA's NSSDC Master Catalog

Two Line Element Set (TLE):
1 01291U 65016D   25199.46345718 -.00000015  00000-0  27655-4 0  9991
2 01291  70.0768 225.7376 0022007 205.8903 154.1104 13.94917930 70169
Source of the keplerian elements: AFSPC